Flag for U.S.A. Weather past 2 weeks in Corvallis, Oregon, U.S.A.

21 °F


Feels Like: 16 °F
Forecast: 22 / 42 °F
Wind: 3 mph from West

Location: Corvallis Municipal

Current Time: Nov 28, 2015 at 5:54:32 AM

Latest Report: Nov 28, 2015 at 5:35 AM

Visibility: 10 mi

Pressure: 30.29 "Hg

Humidity: 93%

Dew point: 19 °F

Location of CorvallisLocation

Historic Weather in Corvallis — Graph


Corvallis temperature yesterday

Maximum temperature yesterday: 48 °F (at 1:15 PM)
Minimum temperature yesterday: 21 °F (at 3:15 AM)
Average temperature yesterday: 31 °F

Past Weeks' High & Low Weather Summary

High61 °F (Nov 14, 12:55 PM)100% (Nov 21, 8:35 AM)30.44 "Hg (Nov 21, 8:35 AM)
Low21 °F (Nov 26, 5:35 AM)37% (Nov 26, 3:35 PM)29.49 "Hg (Nov 15, 12:55 AM)
Average42 °F82%30.11 "Hg
* Reported Nov 13 4:15 AM — Nov 28 4:35 AM, Corvallis, Weather by CustomWeather, © 2015

Note: Actual official high and low records may vary slightly from our data, if they occured in-between our weather recording intervals... More about our weather records


Corvallis weather history for previous 24 hours

Time TempWeatherWind HumidityBarometerVisibility
4:35 AM
Sat, Nov 28
21 °FClear.No wind100%30.29 "Hg10 mi
4:15 AM21 °FClear.No wind93%30.29 "Hg10 mi
3:55 AM21 °FClear.No wind93%30.30 "Hg10 mi
3:35 AM21 °FClear.No wind93%30.30 "Hg10 mi
3:15 AM23 °FClear.No wind93%30.30 "Hg10 mi
2:55 AM23 °FClear.No wind93%30.31 "Hg10 mi
2:35 AM25 °FClear.3 mph86%30.30 "Hg10 mi
2:15 AM23 °FClear.3 mph86%30.30 "Hg10 mi
1:55 AM25 °FClear.No wind86%30.29 "Hg10 mi
1:35 AM25 °FClear.No wind86%30.29 "Hg10 mi
1:15 AM25 °FClear.No wind86%30.29 "Hg10 mi
12:55 AM25 °FClear.No wind86%30.29 "Hg10 mi
12:35 AM25 °FClear.No wind86%30.29 "Hg10 mi
12:15 AM25 °FClear.No wind93%30.29 "Hg10 mi
11:55 PM
Fri, Nov 27
25 °FClear.No wind93%30.29 "Hg10 mi
11:35 PM25 °FClear.No wind86%30.29 "Hg10 mi
11:15 PM25 °FClear.No wind86%30.28 "Hg10 mi
10:35 PM25 °FClear.No wind86%30.28 "Hg10 mi
10:15 PM27 °FClear.3 mph86%30.28 "Hg10 mi
9:35 PM27 °FClear.No wind86%30.27 "Hg10 mi
8:55 PM27 °FClear.5 mph86%30.27 "Hg10 mi
8:35 PM28 °FClear.5 mph86%30.27 "Hg10 mi
8:15 PM27 °FClear.3 mph86%30.28 "Hg10 mi
7:55 PM30 °FClear.No wind80%30.27 "Hg10 mi
7:35 PM32 °FClear.No wind80%30.28 "Hg10 mi
7:15 PM30 °FClear.6 mph86%30.28 "Hg10 mi
6:55 PM30 °FClear.6 mph86%30.28 "Hg10 mi
6:35 PM32 °FClear.5 mph80%30.28 "Hg10 mi
6:15 PM34 °FClear.3 mph75%30.28 "Hg10 mi
5:55 PM34 °FClear.3 mph75%30.28 "Hg10 mi
5:35 PM34 °FClear.3 mph70%30.27 "Hg10 mi
5:15 PM39 °FClear.3 mph56%30.27 "Hg10 mi
4:55 PM43 °FClear.No wind49%30.28 "Hg10 mi
3:55 PM46 °FSunny.7 mph46%30.28 "Hg10 mi
3:35 PM48 °FSunny.10 mph43%30.29 "Hg10 mi
2:55 PM48 °FSunny.10 mph40%30.29 "Hg10 mi
2:35 PM48 °FSunny.12 mph40%30.29 "Hg10 mi
2:15 PM48 °FSunny.10 mph40%30.30 "Hg10 mi
1:55 PM48 °FSunny.13 mph40%30.31 "Hg10 mi
1:35 PM48 °FSunny.5 mph37%30.32 "Hg10 mi
1:15 PM48 °FSunny.3 mph40%30.32 "Hg10 mi
12:55 PM45 °FSunny.No wind46%30.33 "Hg10 mi
12:35 PM45 °FSunny.No wind46%30.33 "Hg10 mi
12:15 PM41 °FSunny.3 mph49%30.34 "Hg10 mi
11:55 AM43 °FSunny.No wind49%30.34 "Hg10 mi
11:35 AM41 °FSunny.3 mph53%30.35 "Hg10 mi
11:15 AM39 °FSunny.No wind56%30.35 "Hg10 mi
10:55 AM36 °FSunny.No wind65%30.36 "Hg10 mi
10:35 AM36 °FSunny.No wind70%30.36 "Hg10 mi
10:15 AM34 °FSunny.No wind75%30.36 "Hg10 mi
9:55 AM32 °FSunny.No wind80%30.36 "Hg10 mi
9:35 AM30 °FSunny.No wind86%30.36 "Hg10 mi
9:15 AM28 °FSunny.No wind86%30.35 "Hg10 mi
8:55 AM27 °FSunny.No wind93%30.35 "Hg10 mi
8:35 AM25 °FSunny.No wind93%30.35 "Hg10 mi
7:55 AM21 °FSunny.No wind100%30.35 "Hg10 mi
7:35 AM21 °FSunny.No wind93%30.34 "Hg10 mi
7:15 AM21 °FClear.No wind86%30.35 "Hg10 mi
6:55 AM21 °FClear.No wind93%30.34 "Hg10 mi
6:35 AM21 °FClear.3 mph93%30.34 "Hg10 mi
6:15 AM21 °FClear.3 mph93%30.35 "Hg10 mi
5:55 AM21 °FClear.No wind93%30.35 "Hg10 mi
5:35 AM21 °FClear.No wind86%30.35 "Hg10 mi
5:15 AM21 °FClear.No wind86%30.35 "Hg10 mi
Weather by CustomWeather, © 2015

See weather overviewHow to use our weather pages